Location: Aufkirchen
(47.9603°N, 11.3653°E)
Time: 23:11:54
(UTC+02:00)

Altair - Pass Details

Date: 03 August 2021
Orbit: 1501 x 1682 km, 47.2° (Epoch: 22 September)

Event Time Altitude Azimuth Distance (km) Brightness Sun altitude
Exits shadow 01:14:00 30° 138° (SE) 2,509 8.2 -24.5°
Maximum altitude 01:14:15 30° 136° (SE) 2,507 8.2 -24.5°
Drops below altitude 10° 01:21:51 10° 80° (E) 3,683 9.6 -24.5°
Sets 01:25:19 0° 70° (ENE) 4,653 10.3 -24.5°
